sat.trackr.live / text

‹ back to catalog

STARLINK-30877

NORAD 58242 · 2023-171N

PAYLOAD ACTIVE UNKNOWN

§ Identity

Operator
Country
US
Launch date
2023-11-08
Launch site
AFETR
Launch vehicle
Mass (kg)
RCS (m²)

Purposes: comms

External: N2YO · Heavens-Above · Gunter

§ Orbital elements

Epoch: 2026-09-20T01:37:46.547904Z

Period
94.27 min
Inclination
43.0055°
Eccentricity
0.0001816
Mean motion
15.27576257 rev/d
Perigee alt
481.8 km
Apogee alt
484.3 km
Semi-major
6,861.2 km
B*
4.8116e-6
RAAN
267.3526°
Arg perigee
279.2538°
Mean anomaly
80.8108°
Rev number
15,946

§ Raw data

STARLINK-308771 58242U 23171N   26263.06789986 -.00000130  00000+0  48116-5 0  99962 58242  43.0055 267.3526 0001816 279.2538  80.8108 15.27576257159460

JSON: /api/v1/satellites/58242 · /tle

For live sub-satellite position, see the globe view (requires WebGL).

§ Visibility from observer

Set your observer location to see the next 7 days of passes ≥ 10°. The values pass through the URL so the page stays shareable.

No JS? Fill the form by hand. The geolocation button needs JavaScript.